Location: Sainte-Radegonde
(47.4069°N, 0.7047°E)
Time: 19:08:54
(UTC+00:00)

Daily predictions for brighter satellites

Satellite Brightness Start Highest point End
(mag) Time Altitude Azimuth Time Altitude Azimuth Time Altitude Azimuth
Cosmos 1864 Rocket 4.5 18:40:19 10° S 18:46:31 73° E 18:52:40 10° NNE
SPOT 1/Viking Rocket 3.7 18:43:33 10° SSE 18:48:39 60° ENE 18:53:45 10° N
Landsat 7 4.4 18:45:03 10° S 18:49:42 62° W 18:54:22 10° NNW
ATLAS 2AS CENTAUR R/B 3.7 18:44:28 10° WSW 18:51:36 54° NW 18:58:30 10° NE
ATLAS CENTAUR R/B 3.0 18:50:23 10° NW 18:55:06 71° SW 19:02:35 10° SE
Cosmos 1898 Rocket 3.6 18:50:25 10° NNW 18:55:46 89° WSW 19:01:04 10° SSE
Cosmos 2360 Rocket 2.3 18:51:25 10° SSW 18:57:05 89° ESE 19:02:45 10° NNE
ARGOS Delta rocket 4.3 18:52:16 10° SE 18:57:14 48° ENE 19:01:58 10° N
Cosmos 1151 Rocket 3.0 18:53:17 10° N 18:57:32 62° E 19:01:44 10° SSE
Okean O Rocket 3.0 18:55:18 10° ESE 18:58:39 22° ENE 19:02:01 10° NNE
Cosmos 1340 2.8 18:56:46 10° SSE 18:59:48 37° E 19:02:53 10° NNE
USA 186 2.7 18:59:11 10° SE 19:02:01 30° ENE 19:04:54 10° N
Meteor PRIRODA 3.3 18:59:01 10° SSE 19:02:19 71° ENE 19:05:38 10° N
Resurs 01 Rocket 2.2 18:58:56 10° SE 19:03:01 38° ENE 19:07:07 10° N
Cosmos 2322 Rocket 2.8 19:00:20 10° SW 19:06:00 65° WNW 19:11:42 10° NNE
Cosmos 2237 Rocket 3.9 19:05:23 10° ESE 19:06:27 11° E 19:07:30 10° E
Helios 1A 2.9 19:05:43 10° NNE 19:09:46 62° ESE 19:13:47 10° S
ACS3 Solar Sail 2.7 19:05:59 10° SE 19:11:35 33° ENE 19:17:13 10° N
BlueWalker 3 2.6 19:08:37 10° WNW 19:12:13 43° NNE 19:15:32 12° E
NOSS 2-1 (E) 4.5 19:09:35 10° NNW 19:12:53 31° NE 19:16:31 13° ESE
Cosmos 44 Rocket 3.4 19:08:30 10° NNW 19:13:14 60° NE 19:17:37 11° SE
Cosmos 2333 Rocket 2.5 19:08:14 10° SSW 19:13:59 74° WNW 19:19:47 10° NNE
Okean-O 4.2 19:12:12 12° ESE 19:14:52 19° ENE 19:17:57 10° NNE
SL-08 R/B 3.5 19:12:16 10° NNE 19:17:13 88° W 19:22:08 10° SSW
ATLAS 3B R/B 3.7 19:10:20 10° NW 19:17:57 55° WSW 19:25:22 10° SSE
Cosmos 2219 Rocket 2.2 19:12:19 10° SSW 19:17:58 72° ESE 19:23:39 10° NNE
SKYMED 3 4.4 19:14:21 10° NNE 19:18:30 88° E 19:22:38 10° SSW
Meteor 1-5 Rocket 4.3 19:15:47 10° S 19:21:24 90° NW 19:27:14 10° NNE
Cosmos 1626 3.1 19:19:18 10° NNW 19:22:08 38° W 19:24:56 10° SSW
NOSS 2-1 (D) 4.2 19:19:30 10° NNW 19:22:56 37° NE 19:26:15 16° ESE
CSL-04 Rocket 3.8 19:18:01 10° SE 19:23:14 53° ENE 19:28:26 10° N
BREEZE-M DEB (TANK) 1.5 19:21:20 10° WSW 19:23:26 64° SSE 19:25:17 15° ENE
Cosmos 1842 3.9 19:22:33 10° N 19:25:47 30° ENE 19:27:54 17° SE
SL-16 R/B 4.1 19:21:16 10° WSW 19:26:21 33° NW 19:31:27 10° NNE
USA 229 DEB 4.1 19:19:56 10° NW 19:27:24 82° SW 19:35:31 10° SSE
USA 229 4.1 19:20:05 10° NW 19:27:33 82° SW 19:35:40 10° SSE
CZ-4B R/B 4.1 19:24:37 10° S 19:29:15 55° WSW 19:33:57 10° NNW
SJ-6B 3.5 19:25:55 10° S 19:29:29 51° W 19:33:03 10° NNW
Timation 2 Rocket 4.4 19:25:17 10° NNW 19:31:29 66° WSW 19:37:56 10° SSE
Cosmos 1766 Rocket 3.7 19:27:31 10° SSE 19:31:41 48° E 19:35:54 10° NNE
USA 267 4.1 19:29:20 10° ENE 19:35:24 42° N 19:41:28 10° WNW
BREEZE-M R/B 3.8 19:32:26 10° W 19:36:34 80° N 19:49:01 12° E
Cosmos 2322 3.7 19:33:17 10° S 19:38:48 59° ESE 19:44:21 10° NNE
USA 276 2.6 19:37:19 10° WNW 19:40:04 45° N 19:41:31 22° ENE
Cosmos 1066 Rocket 4.3 19:35:45 10° N 19:41:41 87° E 19:47:31 10° S
Cosmos 1400 Rocket 2.6 19:38:57 10° N 19:42:49 86° ENE 19:46:25 11° SSE
PSLV R/B 4.2 19:44:57 26° ESE 19:46:19 37° ENE 19:49:39 10° N
Cosmos 1707 2.9 19:43:59 10° N 19:47:24 43° ENE 19:48:45 29° SE
Cosmos 1315 Rocket 4.3 19:44:51 10° NNE 19:47:50 20° ENE 19:48:17 20° ENE
CZ-4 R/B 2.2 19:44:21 10° S 19:47:59 47° W 19:51:43 10° NNW
Cosmos 1891 Rocket 4.4 19:42:53 10° S 19:48:50 62° E 19:54:54 10° NNE
Cosmos 1733 4.1 19:49:19 24° ENE 19:49:19 24° ENE 19:51:45 10° NE
Cosmos 1726 2.3 19:46:12 10° SSW 19:48:57 50° WNW 19:51:43 10° N
Cosmos 1536 3.1 19:55:08 30° SE 19:56:17 39° E 19:59:52 10° NNE
KORONAS-FOTON 3.6 19:54:00 10° N 19:57:43 78° E 19:59:46 25° SSE
Lacrosse 4 Rocket 1.6 19:53:25 10° NW 19:57:46 72° WSW 20:00:26 23° SSE
COSMOS 2428 2.6 19:52:13 10° SSW 19:57:51 67° ESE 20:03:33 10° NNE
Cosmos 1818 3.6 19:52:35 10° SW 19:58:03 90° SE 20:03:35 10° NE
CSL-04 Debris 4.3 19:52:47 10° S 19:58:15 77° WSW 20:03:45 10° NNW
Nadezhda 4 Rocket 4.2 19:55:47 10° N 20:01:52 52° ENE 20:05:35 24° SE
Cosmos 1356 Rocket 3.4 19:57:50 10° N 20:02:00 62° ENE 20:03:51 31° SSE
Meteor 1-4 Rocket 1.6 19:59:19 10° N 20:02:01 88° E 20:02:21 65° SSE
Cosmos 1943 Rocket 2.8 19:59:03 10° NNW 20:04:14 40° NE 20:06:28 28° ESE
Meteor 1-14 Rocket 4.1 20:00:16 10° S 20:05:49 80° E 20:11:22 10° NNE
Cosmos 1674 3.2 20:02:40 10° NNW 20:05:55 50° W 20:08:23 16° SSW
Cosmos 1328 Rocket 3.9 20:02:52 10° NNW 20:07:07 62° W 20:11:04 12° S
Cosmos 1743 4.4 20:04:10 10° SW 20:07:25 32° WNW 20:10:41 10° N
Cosmos 1513 Rocket 4.3 20:01:42 10° S 20:07:43 78° E 20:13:49 10° N
USA 59 Rocket 0.0 20:06:04 10° NW 20:09:53 84° NE 20:11:54 35° SE
Terra 2.7 20:09:10 28° E 20:10:01 30° ENE 20:14:07 10° N
Cosmos 1464 Rocket 4.0 20:05:04 10° S 20:11:15 65° E 20:17:33 10° NNE
Meteor 1-11 Rocket 3.9 20:09:42 21° SSE 20:13:18 50° E 20:18:39 10° NNE
Ariane Rocket 4.1 20:14:45 25° ENE 20:15:34 26° ENE 20:19:44 10° N
Cosmos 1125 Rocket 3.8 20:12:09 10° NNW 20:17:11 49° ENE 20:18:45 37° ESE
USA 290 2.1 20:16:29 10° NNW 20:19:44 75° ENE 20:19:44 75° ENE
Cosmos 2278 Rocket 2.1 20:14:53 10° NNW 20:20:35 75° ENE 20:22:57 36° SE
ERS-1 Rocket 3.4 20:19:35 37° ESE 20:20:48 45° ENE 20:25:35 10° N
CZ-4B R/B 4.1 20:16:17 10° S 20:21:36 48° W 20:26:50 10° NNW
BREEZE-M DEB (TANK) 4.1 20:19:08 10° WNW 20:22:15 68° N 20:26:06 24° E
Meteor 2-9 Rocket 4.2 20:20:43 35° SE 20:22:28 49° E 20:27:39 10° NNE
USA 306 3.4 20:21:29 10° SW 20:23:20 31° SSW 20:23:20 31° SSW
SPOT 5 2.7 20:24:19 40° SSE 20:26:00 77° ENE 20:30:35 10° N
NOSS 2-1 (C) 3.6 20:22:35 10° NW 20:26:24 71° SW 20:27:51 42° SSE
IRS-1A Rocket 4.4 20:25:48 37° SE 20:28:00 61° ENE 20:33:41 10° N
Cosmos 2034 Rocket 4.0 20:26:34 26° SSE 20:30:03 61° E 20:36:08 10° NNE
Okean 3 Rocket 3.7 20:28:15 15° SSW 20:32:00 76° W 20:36:29 10° N
Okean O Rocket 2.5 20:31:49 20° SSW 20:34:37 47° W 20:38:55 10° NNW
NOSS 0 Rocket 3.8 20:32:08 10° SSW 20:38:22 81° ESE 20:44:39 10° NNE
Resurs 01 Rocket 3.7 20:35:54 10° SSW 20:39:33 25° W 20:43:12 10° NW
USA 215 3.3 20:36:17 10° ENE 20:42:37 49° SE 20:48:54 10° SSW
MOS 1 Rocket 3.3 20:45:58 55° SSE 20:47:07 89° ENE 20:52:20 10° NNW
Cosmos 2228 Rocket 4.4 20:43:27 10° N 20:46:31 27° NE 20:46:31 27° NE
Cosmos 2237 Rocket 2.0 20:46:17 27° S 20:49:24 70° ESE 20:55:01 10° NNE
BlueWalker 3 2.6 20:46:41 10° WNW 20:49:46 48° WSW 20:49:46 48° WSW
Okean-O 3.2 20:49:38 40° SSW 20:50:51 54° W 20:55:12 10° NNW
Cosmos 1515 Rocket 4.5 20:49:04 10° NNW 20:53:12 45° W 20:54:36 33° SW
Aureole 3 Rocket 4.0 20:47:44 20° S 20:53:21 80° E 20:58:58 10° NNE
ACS3 Solar Sail 2.6 20:50:27 16° SSW 20:55:25 50° W 21:01:39 10° NNW
Sich 1 3.3 20:57:04 58° NNE 20:57:04 58° NNE 21:00:36 10° NNE
Cosmos 2219 Rocket 4.5 20:57:54 10° W 21:02:29 24° NW 21:07:04 10° N
BREEZE-M DEB (TANK) 3.8 20:51:15 10° W 21:09:03 77° N 21:10:46 47° ENE
Cosmos 1500 Rocket 3.8 21:11:22 65° WNW 21:11:22 65° WNW 21:15:32 10° N
IRS-1C Rocket 4.3 21:14:37 56° SW 21:15:25 63° WSW 21:20:40 10° NNW
Cosmos 1743 Rocket 4.2 21:16:41 49° N 21:16:41 49° N 21:19:54 10° N
USA 267 3.3 21:16:20 53° E 21:17:53 72° NNE 21:24:26 10° NW
Cosmos 1980 3.9 21:12:29 10° SW 21:18:09 70° WNW 21:23:51 10° NNE
Cosmos 2369 Rocket 3.2 21:16:26 10° NNW 21:21:39 35° NE 21:21:39 35° NE
Spot 2 Rocket 3.5 21:21:59 76° W 21:21:59 76° W 21:26:54 10° NNW
Cosmos 2298 Rocket 4.0 21:17:10 10° NNW 21:22:14 81° NNW 21:22:14 81° NNW
Cosmos 1315 Rocket 4.2 21:20:22 10° NNW 21:23:29 35° WNW 21:23:29 35° WNW
Cosmos 2150 Rocket 4.1 21:22:24 10° NNW 21:27:07 73° NW 21:27:07 73° NW
SL-16 R/B 3.6 21:49:08 28° NE 21:49:08 28° NE 21:51:44 10° NNE
NOSS 3-4 (A) 4.1 21:40:35 10° NW 21:47:11 57° NE 21:47:59 54° ENE
NOSS 3-4 (C) 4.1 21:40:41 10° NW 21:47:16 56° NE 21:48:05 53° ENE
Terra 3.1 21:47:52 35° W 21:47:52 35° W 21:51:50 10° NNW
Cosmos 1943 Rocket 3.2 21:42:55 10° NW 21:47:54 36° WSW 21:47:58 36° WSW
Ariane Rocket 3.9 21:54:54 44° WNW 21:54:54 44° WNW 21:59:09 10° NNW
Cosmos 2266 Rocket 4.4 21:50:18 10° N 21:55:30 53° NE 21:55:30 53° NE
SPOT 3 Rocket 4.4 21:57:51 45° WNW 21:57:51 45° WNW 22:02:11 10° NNW
USA 59 Rocket 2.7 21:56:49 10° W 21:58:17 14° WSW 21:58:17 14° WSW
Cosmos 1634 Rocket 4.5 22:01:43 51° WSW 22:02:35 55° WNW 22:08:48 10° N
Cosmos 2278 Rocket 4.2 22:00:11 10° WNW 22:04:00 19° W 22:04:48 18° WSW
USA 215 3.5 22:19:18 10° NE 22:25:47 66° NNW 22:32:15 10° WSW
Cosmos 2237 Rocket 4.2 22:29:27 10° W 22:34:00 24° NW 22:38:34 10° N
USA 267 4.5 23:03:41 31° W 23:03:41 31° W 23:07:20 10° WNW
Cosmos 2369 Rocket 3.8 23:00:23 10° NW 23:03:25 29° NW 23:03:25 29° NW
SL-16 R/B 3.9 23:30:58 27° NW 23:30:58 27° NW 23:35:28 10° N
